Regional Weather Roundup
Issued by NWS

Home | Current Version | Previous Version | Text Only | Print | Product List | Glossary On
Versions: 1 2 3 4 5 6 7 8 9 10 11 12 13 14 15 16 17 18 19 20 21 22 23 24 25 26 27 28 29 30 31 32 33 34 35 36 37 38 39 40 41 42 43 44 45 46 47 48 49 50
000
ASUS43 KDTX 280510
RWRMI
MICHIGAN HOURLY REGIONAL WEATHER ROUNDUP
NATIONAL WEATHER SERVICE DETROIT/PONTIAC MI
ISSUED BY NATIONAL WEATHER SERVICE GRAND RAPIDS MI
100 AM EDT FRI JUL 28 2017

NOTE: "FAIR" INDICATES FEW OR NO CLOUDS BELOW 12,000 FEET WITH NO
SIGNIFICANT WEATHER AND/OR OBSTRUCTION TO VISIBILITY.

MIZ047>049-052>055-059>063-066>070-074>076-081>083-280600-
SOUTHEAST LOWER MICHIGAN

CITY           SKY/WX    TMP DP  RH WIND       PRES   REMARKS
ADRIAN         CLOUDY    71  58  63 NE10      29.94R
ALMA           MOCLDY    63  59  87 CALM      29.99R
ANN ARBOR      MOCLDY    66  60  81 N6        29.94S
BAD AXE        PTCLDY    60  59  95 NE3       29.97F
DETROIT CITY   CLOUDY    67  60  78 N8        29.94S
DETROIT        MOCLDY    69  59  70 NE9       29.94S
FLINT          PTCLDY    65  58  78 NE7       29.97R
GROSSE ILE     MOCLDY    69  61  75 NE5       29.92S
HILLSDALE      CLOUDY    70  59  68 NE3       29.94S
HOWELL         MOCLDY    65  60  82 NE3       29.97R

CITY           SKY/WX    TMP DP  RH WIND       PRES   REMARKS
JACKSON        LGT RAIN  68  62  81 NE5       29.95S
LANSING        PTCLDY    65  58  78 NE6       29.97R
MASON          PTCLDY    64  61  91 CALM      29.96S
MONROE         PTCLDY    68  60  77 N3        29.92S
MT. CLEMENS    MOCLDY    63  62  95 N7        29.93S
PONTIAC        PTCLDY    65  60  84 N5        29.95S
PORT HOPE        N/A     68  62  81 N8        29.96F
PORT HURON     CLOUDY    66  61  82 N7        29.95S
TRI CITIES     PTCLDY    65  62  90 NE3       29.98S
YPSILANTI      MOCLDY    69  59  70 NE9       29.94S
$$
MIZ043>046-050>051-056>058-064>065-071>073-077>080-280600-
SOUTHWEST LOWER MICHIGAN

CITY           SKY/WX    TMP DP  RH WIND       PRES   REMARKS
BATTLE CREEK   PTCLDY    70  61  73 NE8       29.96R
BENTON HARBOR  CLEAR     70  61  73 E5        29.92R
BIG RAPIDS     PTCLDY    65  61  87 CALM      29.99R
COLDWATER      CLOUDY    72  60  67 E6        29.94R
HOLLAND        CLEAR     72  60  66 NE6       29.96R
GRAND RAPIDS   PTCLDY    68  61  78 E10       29.96S
KALAMAZOO      PTCLDY    69  60  73 NE5       29.95R
MARSHALL       PTCLDY    68  66  93 CALM      29.95R
MOUNT PLEASANT MOCLDY    63  60  90 CALM      29.98S
MUSKEGON       PTCLDY    70  59  68 NE6       29.96R
STURGIS        CLOUDY    72  63  72 NE9       29.92S
$$
MIZ016>042-280600-
NORTHERN LOWER MICHIGAN

CITY           SKY/WX    TMP DP  RH WIND       PRES   REMARKS
ALPENA         PTCLDY    63  60  90 NW3       30.00R
BEAVER ISLAND  CLOUDY    58  55  89 CALM      30.02S
BELLAIRE       PTCLDY    57  55  92 CALM      30.01R
CADILLAC       MOCLDY    61  55  81 CALM      30.02R
CHARLEVOIX     MOCLDY    65  57  76 N3        30.04S
GAYLORD        PTCLDY    63  52  67 NE6       30.02S
HOUGHTON LAKE  PTCLDY    57  56  96 NE3       30.01S
MANISTEE       PTCLDY    64  57  78 N3        30.00R
OSCODA         CLEAR     60  57  92 CALM      29.99R
PELLSTON       CLOUDY    58  56  93 NW3       30.02S
TRAVERSE CITY  CLEAR     67  57  70 NE6       30.00R
LUDINGTON      CLOUDY    63  59  87 N6        29.99S
$$
MIZ007>008-015-280600-
EASTERN UPPER MICHIGAN

CITY           SKY/WX    TMP DP  RH WIND       PRES   REMARKS
KINROSS        CLOUDY    59  56  89 N8        30.03R
MACKINAC ISLAN CLOUDY    62  57  84 N10       30.02R
NEWBERRY       PTCLDY    54  53  97 N3        30.04R
S. S. MARIE    CLOUDY    62  56  80 CALM      30.02S
$$
MIZ004>006-011>014-085-280600-
CENTRAL UPPER MICHIGAN

CITY           SKY/WX    TMP DP  RH WIND       PRES   REMARKS
MANISTIQUE     PTCLDY    55  52  89 N8        30.03R
ESCANABA       MOCLDY    56  53  90 CALM      30.05R
SAWYER-GWINN   PTCLDY    57  51  79 N7        30.08R
$$
MIZ001>003-009>011-084-280600-
WESTERN UPPER MICHIGAN

CITY           SKY/WX    TMP DP  RH WIND       PRES   REMARKS
HOUGHTON       PTCLDY    57  50  77 N7        30.08R
COPPER HARBOR    N/A     58  54  86 CALM      30.07R
IRONWOOD       FOG       55  55 100 W5        30.10S VSB 1/2
$$

ABBREVIATIONS USED IN REMARKS
   TC - TEMPERATURE IN CELSIUS
  WCI - WIND CHILL INDEX
   HX - HEAT INDEX
  VSB - VISIBILITY




USA.gov is the U.S. government's official web portal to all federal, state and local government web resources and services.